Terug naar catalogus

ZHIHUI TIANWANG-1 01B

ActiefCommunicatieHEO
NORAD 59706·PAYLOAD·🇨🇳 China

Gelanceerd May 9, 2024 vanaf Xichang Satellite Launch Center

Loading…

Volgende Passages (komende 24 uur)

TLE

VersSource: Space-Track

Epoch: Sep 13, 2026, 21:06 UTC

1 59706U 24087B   26256.87957495  .00000006  00000-0  00000-0 0  9999
2 59706  53.1270 166.9266 0027237 202.0464 157.8763  2.00561154 16730

Volg ZHIHUI TIANWANG-1 01B in realtime met AllMySat

Download on the App Store